Wetbulb
53.38 49.41 46.91 49.62 51.21 51.22 49.99 49.97 51.34 53.67 55.05 56.50 56.29 56.74 59.47 64.72 65.70 65.51 65.72 65.88 66.26 66.78 69.06 70.61 71.40 72.05 72.39 72.97 73.18 73.62 73.72 74.84 74.01 72.96 72.07 72.02 71.10 73.02 74.49 75.57 76.75 76.88 77.19 77.55
49.33 46.59 50.67 51.42 50.71 49.46 48.94 48.35 50.37 52.01 52.14 52.75 53.92 55.28 59.46 63.55 64.72 65.92 65.54 65.75 66.09 67.02 68.24 69.62 70.88 71.67 72.05 72.32 73.12 73.77 74.00 74.95 74.26 73.67 73.69 72.97 73.34 73.86 75.08 76.11 76.88 77.41 77.19 77.66
46.94 48.62 51.34 50.32 49.21 47.92 47.88 47.16 49.21 50.24 51.06 55.82 55.04 53.75 57.89 62.62 65.03 66.25 66.83 67.14 66.60 67.36 67.38 68.77 69.70 70.69 71.76 72.05 73.31 73.93 74.84 75.57 74.96 75.34 74.36 74.08 74.63 74.69 74.11 74.55 75.68 76.50 77.19 77.55
47.65 51.17 49.45 48.73 48.17 49.32 45.72 49.54 49.07 49.84 49.49 47.27 56.36 48.39 56.02 60.59 62.05 64.11 65.78 66.53 66.97 67.38 68.36 68.83 69.39 70.31 71.15 72.50 73.23 74.33 74.78 75.39 75.15 76.07 74.48 74.66 72.27 71.86 73.47 74.67 75.50 76.13 77.24 77.18
47.13 48.43 48.58 47.71 48.19 50.71 47.69 50.36 49.42 49.51 49.55 48.89 49.92 48.81 52.92 59.29 59.71 61.85 64.52 66.24 67.38 68.32 68.48 68.50 69.26 70.64 71.44 72.54 72.45 73.16 74.56 75.14 75.50 75.69 75.63 74.32 74.06 73.72 74.48 74.87 76.54 77.20 77.64 77.22
49.65 51.29 51.41 50.87 51.43 51.49 52.41 50.03 49.32 48.74 48.72 43.75 48.88 48.44 50.50 55.36 59.53 62.41 64.43 66.04 67.27 68.32 69.08 69.68 70.37 70.84 71.20 72.22 72.73 72.78 74.07 74.66 75.51 75.39 75.32 75.29 74.84 74.90 73.55 74.30 74.10 74.58 74.92 75.73
48.12 47.58 51.14 52.15 49.52 51.43 50.46 47.91 42.49 41.04 41.35 41.73 50.32 46.94 49.91 55.06 59.90 62.58 63.87 65.33 66.77 68.08 68.90 69.57 69.89 69.77 71.45 71.82 72.70 73.33 73.81 73.67 74.92 74.93 75.05 75.20 75.27 75.65 75.40 75.29 74.01 74.97 73.92 74.34
43.58 41.54 47.75 50.60 49.94 47.66 48.54 47.49 42.67 38.10 39.72 42.79 48.07 45.03 49.72 55.77 57.27 61.90 63.26 65.53 67.04 67.45 68.67 69.17 70.77 71.06 70.76 71.69 72.53 73.07 73.23 73.30 74.16 74.64 74.72 75.30 75.98 75.04 74.91 75.58 74.49 74.17 74.40 74.93
44.20 44.25 49.72 49.83 51.44 50.95 47.92 45.92 49.33 44.66 43.58 42.47 45.99 49.11 52.65 55.64 56.66 58.08 62.42 63.96 65.24 66.92 67.91 68.50 69.43 70.71 70.96 71.27 72.18 73.00 73.38 73.39 74.20 74.42 74.73 75.09 75.50 75.46 75.00 76.32 76.57 74.81 76.63 75.44
47.80 43.77 49.02 49.41 50.95 51.21 49.16 50.73 43.13 45.33 38.92 37.99 43.02 44.75 47.22 53.36 54.80 57.82 59.78 62.60 64.34 66.13 67.24 68.43 69.94 70.77 71.44 71.43 72.29 73.46 73.66 73.51 73.95 74.47 74.75 74.68 74.99 75.70 76.00 76.25 76.17 76.17 77.00 76.58
47.35 46.77 46.10 48.98 47.15 46.72 46.16 46.59 47.27 47.07 44.96 40.65 39.63 43.59 52.70 54.94 57.46 57.21 58.94 62.11 63.47 64.58 65.73 66.87 69.11 71.00 71.83 72.15 71.54 72.42 73.20 73.48 73.83 74.21 74.72 74.86 75.00 75.46 75.91 75.74 76.11 76.27 76.91 77.06
46.45 44.88 45.07 46.10 50.67 51.81 49.73 48.24 47.97 43.49 42.56 43.99 44.18 44.25 52.79 55.44 57.63 58.81 59.34 60.96 62.65 64.40 65.60 66.62 67.02 69.20 70.44 71.39 71.55 71.75 72.74 72.76 73.57 74.10 74.62 74.65 75.44 75.58 75.43 75.61 75.93 76.48 76.21 76.93
45.87 43.21 42.36 44.46 48.08 49.35 47.98 49.21 49.33 48.75 48.34 45.32 41.29 43.90 54.45 55.15 55.37 56.49 58.48 60.41 62.42 64.32 65.94 66.79 67.19 68.40 69.94 70.58 70.86 71.12 72.10 72.34 73.26 73.97 74.23 74.60 74.77 74.80 74.90 75.31 76.03 76.29 76.24 76.47
46.79 43.06 42.82 42.66 44.77 45.29 44.56 47.31 48.92 47.86 44.90 45.49 45.98 47.19 51.21 53.26 54.27 56.56 57.80 59.44 60.45 63.71 65.69 67.08 67.64 68.11 69.85 70.70 70.80 70.91 71.78 72.64 72.95 73.48 73.61 73.58 73.90 74.57 74.83 75.37 75.77 76.13 76.18 75.94
44.12 38.92 40.82 42.13 42.99 43.94 44.01 44.35 45.80 45.91 48.23 46.30 47.97 48.97 51.25 53.22 55.53 58.03 59.29 59.86 60.03 61.88 64.17 66.09 67.46 68.98 69.68 70.39 70.83 71.17 71.55 72.85 73.26 73.25 73.13 73.31 74.72 75.33 75.50 75.48 75.79 76.01 76.19 75.83
42.47 38.48 40.78 39.03 42.71 43.59 42.74 45.08 45.87 46.09 46.77 47.02 47.85 48.27 54.33 55.99 57.23 57.57 58.77 59.57 60.41 61.20 63.39 66.29 67.87 69.10 69.99 69.97 70.27 70.62 71.33 71.98 73.10 73.21 72.98 73.92 74.65 75.11 75.03 75.38 75.62 75.82 75.97 76.00
38.74 38.64 38.03 35.87 41.25 42.07 39.91 44.47 46.04 46.99 48.54 48.33 45.71 50.43 54.01 53.79 54.69 57.59 59.03 60.31 60.42 61.64 64.27 66.21 67.64 69.28 70.52 69.85 70.48 70.45 71.21 72.74 72.94 73.07 73.48 74.14 74.70 74.57 74.88 75.33 75.57 75.24 75.46 76.41
37.77 37.91 40.50 36.15 39.21 32.78 45.06 49.74 51.04 48.59 49.21 50.39 50.35 51.48 53.24 54.65 57.40 58.82 60.74 60.60 61.21 62.32 62.79 64.47 65.43 67.77 69.77 70.02 69.49 71.29 71.82 72.42 72.93 73.14 73.72 74.41 74.72 74.19 74.84 74.97 74.70 75.01 75.30 75.34
40.38 38.80 36.09 34.04 35.96 40.39 43.04 46.96 50.86 49.82 49.52 54.39 52.19 52.93 53.66 55.19 56.11 58.11 59.63 60.34 61.82 63.19 64.64 64.25 64.17 66.07 70.41 70.67 71.27 71.29 71.80 72.19 72.85 72.82 73.60 74.12 74.27 74.45 74.82 74.48 74.26 74.80 74.79 74.73
39.96 39.89 36.65 36.12 32.35 32.17 43.92 48.95 53.08 54.21 45.29 54.51 55.54 55.48 55.44 56.69 51.06 54.40 61.50 60.28 60.29 61.38 62.50 63.17 64.85 65.81 67.32 69.89 69.91 70.85 71.30 71.95 72.16 73.03 73.45 74.47 74.68 74.62 74.49 74.76 74.73 75.58 75.29 74.83
33.76 34.00 32.20 33.40 33.22 38.89 46.77 51.52 55.90 46.13 47.76 56.49 57.30 58.01 57.84 56.23 56.75 61.37 61.18 60.90 62.09 63.34 63.68 64.63 64.71 66.04 69.06 69.20 70.89 70.92 71.55 71.33 72.58 74.13 74.80 75.19 75.43 75.19 74.94 75.60 75.90 75.98 75.49 75.41
35.65 33.62 32.48 34.04 31.93 29.93 47.72 52.27 48.24 53.57 56.33 57.34 58.55 59.27 58.26 59.42 61.11 62.07 62.75 62.69 60.72 62.75 62.78 62.71 64.31 65.58 67.20 69.26 70.27 70.77 71.56 73.06 74.64 74.88 74.20 75.27 75.85 74.83 74.79 75.51 74.05 75.83 74.38 72.32
34.84 38.63 37.73 37.62 37.62 45.71 48.74 49.99 55.58 56.95 56.05 57.20 58.50 60.32 60.69 59.55 61.11 63.66 64.14 63.16 63.58 68.40 67.61 62.98 64.77 67.84 69.17 70.35 70.54 71.53 73.50 73.39 73.42 73.45 74.21 74.97 75.40 75.39 76.31 75.84 75.32 74.15 74.69 72.74
40.37 43.71 39.74 40.58 43.65 46.35 48.39 51.65 53.58 57.11 56.97 58.62 60.44 60.93 60.75 60.16 63.12 65.14 64.64 65.45 69.97 71.00 69.36 68.99 71.70 70.84 70.76 71.80 71.94 72.27 72.43 73.94 74.62 73.93 74.41 74.84 74.52 74.80 75.71 75.49 75.36 74.53 74.49 74.73
39.75 41.50 39.83 39.60 41.95 43.99 47.81 50.39 53.72 56.67 58.27 59.41 61.48 59.98 59.43 63.66 65.87 63.80 66.75 69.30 68.86 68.66 69.38 70.57 70.75 70.79 71.59 73.26 74.05 74.83 73.21 73.56 72.57 72.98 73.12 73.31 73.81 73.41 70.60 66.28 68.86 75.98 77.07 73.32
40.51 39.19 37.12 36.76 44.46 45.32 46.65 50.07 53.75 54.76 57.47 59.87 59.82 58.01 60.98 65.70 65.87 67.10 67.25 68.04 68.27 68.07 69.08 69.04 69.33 69.32 70.35 72.51 73.35 72.61 74.48 74.51 73.32 71.87 70.79 67.69 66.78 67.02 65.15 63.40 60.67 50.69 51.60 52.14
MSLP
1005.92 1005.82 1004.22 1004.92 1005.53 1005.30 1005.08 1004.47 1003.52 1002.97 1002.81 1002.62 1002.53 1002.44 1003.19 1004.27 1005.01 1005.76 1006.51 1007.34 1007.97 1008.11 1009.11 1010.23 1011.01 1011.65 1012.27 1012.84 1013.47 1013.90 1014.48 1014.90 1015.59 1015.93 1016.21 1016.48 1016.58 1016.90 1017.07 1017.11 1017.28 1017.47 1017.69 1017.80
1005.58 1003.49 1004.27 1005.04 1005.44 1005.45 1005.05 1004.38 1003.57 1003.40 1003.07 1002.88 1002.22 1002.15 1002.66 1003.44 1003.64 1004.48 1005.16 1006.22 1006.68 1007.70 1008.37 1009.22 1010.02 1010.78 1011.35 1011.96 1012.52 1013.13 1013.59 1014.27 1014.87 1015.30 1015.62 1015.86 1016.09 1016.24 1016.34 1016.54 1016.85 1017.03 1017.28 1017.37
1002.53 1002.55 1003.96 1004.44 1004.64 1004.67 1004.30 1003.76 1003.47 1003.31 1003.15 1002.77 1002.49 1002.03 1002.55 1002.96 1003.70 1004.29 1004.83 1005.45 1006.32 1006.37 1006.97 1008.00 1008.95 1009.56 1010.32 1010.97 1011.59 1012.09 1012.57 1013.20 1013.98 1014.69 1015.39 1015.75 1015.95 1016.14 1016.20 1016.36 1016.55 1016.59 1016.92 1017.02
1002.73 1002.91 1003.04 1003.44 1003.45 1003.94 1003.31 1003.70 1003.77 1003.70 1003.64 1002.59 1002.55 1001.14 1001.78 1002.11 1002.80 1003.27 1003.78 1004.34 1004.67 1005.42 1006.28 1006.98 1007.79 1008.49 1009.01 1009.61 1010.55 1011.42 1012.23 1012.69 1013.28 1013.97 1014.42 1014.71 1014.78 1014.97 1015.26 1015.65 1015.93 1016.18 1016.51 1016.69
1000.64 1001.45 1002.08 1002.28 1001.80 1003.19 1002.78 1003.38 1003.50 1003.44 1003.20 1002.88 1002.15 1001.74 1000.31 1001.41 1001.63 1001.84 1002.38 1002.74 1003.43 1003.79 1004.66 1005.49 1006.15 1006.82 1007.59 1008.62 1009.56 1010.47 1011.48 1012.22 1012.63 1013.26 1013.67 1014.11 1014.36 1014.42 1014.83 1015.25 1015.51 1015.91 1016.13 1016.42
1000.32 1000.98 1001.30 1000.93 1001.72 1002.31 1002.84 1003.16 1003.47 1003.61 1003.06 1001.72 1001.02 1001.23 999.03 999.82 999.66 1000.18 1000.97 1001.53 1002.25 1002.82 1003.44 1004.16 1004.94 1005.83 1006.67 1007.85 1008.81 1009.70 1010.60 1011.21 1012.00 1012.52 1012.97 1013.31 1013.48 1013.85 1014.31 1014.74 1014.97 1015.21 1015.52 1015.82
1000.13 1000.21 1000.29 1000.60 1001.07 1001.83 1002.09 1002.18 1002.48 1002.91 1002.01 999.61 1000.42 1000.53 998.34 998.34 998.55 998.49 999.12 999.91 1000.51 1001.33 1002.32 1003.00 1003.92 1004.79 1005.59 1006.44 1007.31 1008.29 1009.32 1010.13 1010.86 1011.56 1012.10 1012.49 1012.89 1013.35 1013.62 1014.05 1014.44 1014.61 1014.90 1015.11
999.05 999.28 998.91 998.99 998.97 999.60 1000.42 1000.57 999.90 1000.16 999.76 999.91 1000.49 997.81 996.83 997.45 997.80 997.95 998.17 998.33 999.19 1000.38 1001.12 1001.81 1002.41 1003.27 1004.21 1005.05 1006.00 1007.05 1008.00 1008.87 1009.63 1010.28 1010.90 1011.48 1012.04 1012.45 1012.88 1013.34 1013.56 1013.89 1014.19 1014.41
998.55 997.81 997.75 998.03 998.48 998.93 999.61 999.36 999.81 1000.07 1000.70 999.85 998.37 997.21 997.15 996.87 996.39 996.67 996.93 997.38 998.10 998.75 999.59 1000.31 1000.94 1001.78 1002.69 1003.82 1004.69 1005.63 1006.66 1007.51 1008.41 1009.11 1009.89 1010.56 1011.17 1011.65 1011.85 1012.34 1012.93 1013.34 1013.77 1013.89
999.02 998.12 997.38 997.49 998.06 998.13 998.43 999.68 1000.29 1000.11 999.51 998.81 997.29 996.77 994.97 995.17 995.34 995.50 995.86 996.40 996.71 997.32 998.29 998.97 999.61 1000.35 1001.23 1002.16 1003.21 1004.46 1005.40 1006.21 1006.77 1007.68 1008.60 1009.25 1009.80 1010.41 1010.89 1011.60 1012.04 1012.38 1012.83 1013.42
1000.41 998.98 998.06 997.50 996.62 996.64 998.19 998.25 998.57 998.96 998.62 997.64 996.79 994.94 994.83 994.53 994.38 994.42 994.50 994.93 995.43 996.09 996.54 997.32 998.17 998.99 999.91 1000.87 1002.09 1002.95 1004.02 1005.08 1006.07 1006.72 1007.30 1008.08 1008.58 1009.23 1010.06 1010.61 1011.08 1011.52 1012.00 1012.51
1002.10 1000.45 998.40 997.40 996.82 996.76 996.99 996.94 997.47 997.51 997.92 997.57 996.43 994.58 994.28 994.06 994.09 994.04 993.92 994.25 994.92 995.44 995.73 996.45 997.00 997.79 998.93 999.71 1000.62 1001.40 1002.53 1003.61 1004.38 1005.22 1006.15 1006.76 1007.53 1008.10 1008.65 1009.27 1009.67 1010.36 1010.96 1011.54
1003.31 1001.61 999.80 998.56 997.85 997.34 996.62 996.89 997.16 997.34 996.98 996.30 996.24 994.17 994.03 994.02 994.08 994.09 994.06 994.24 994.89 995.38 995.85 996.19 996.65 996.93 997.54 998.27 999.13 1000.07 1001.13 1001.68 1002.70 1004.02 1004.81 1005.63 1006.25 1006.93 1007.32 1007.80 1008.51 1009.17 1009.87 1010.43
1004.40 1002.94 1000.94 998.91 998.47 999.04 998.15 997.25 997.13 997.01 996.29 995.48 994.00 994.34 994.08 993.63 993.56 993.72 993.89 993.96 994.56 994.93 995.28 995.59 996.05 996.21 996.73 997.56 998.46 999.23 999.78 1000.63 1001.78 1002.64 1003.41 1004.19 1004.80 1005.24 1005.81 1006.48 1007.36 1007.99 1008.53 1009.19
1005.67 1004.13 1003.14 1001.95 1001.11 1000.28 999.52 998.65 997.94 996.83 995.80 994.29 994.47 993.72 994.08 994.13 993.84 993.52 993.64 993.79 994.06 994.53 995.02 995.08 995.25 995.42 996.02 996.89 997.58 998.27 999.02 1000.00 1000.61 1001.62 1002.35 1002.46 1003.05 1003.93 1004.78 1005.48 1006.00 1006.67 1007.32 1007.91
1007.11 1005.47 1004.47 1002.76 1001.71 1000.60 999.41 998.51 997.68 996.96 996.34 995.51 994.76 993.74 994.06 994.00 994.00 993.75 993.45 993.40 993.47 993.60 993.86 994.19 994.59 994.82 995.25 995.81 996.50 997.26 998.01 998.55 999.51 1000.21 1000.61 1001.40 1002.45 1003.01 1003.37 1004.19 1004.89 1005.66 1006.09 1006.67
1007.90 1006.61 1005.30 1003.33 1002.23 1000.65 998.44 996.80 996.75 996.54 996.09 995.57 994.28 994.24 994.30 993.86 994.00 993.67 993.53 993.47 993.41 993.24 993.19 993.28 993.72 994.08 994.36 994.67 995.17 996.03 996.58 997.84 998.62 999.21 999.78 1000.64 1001.37 1001.97 1002.50 1003.14 1003.86 1004.15 1004.71 1005.54
1008.25 1007.41 1006.00 1004.07 1002.97 1000.38 996.98 996.45 996.37 995.67 995.32 994.90 994.47 994.34 993.96 993.45 993.12 993.08 992.97 992.78 992.46 992.36 992.35 992.50 992.88 993.20 993.43 993.77 994.29 994.63 995.91 996.83 997.73 998.37 999.09 999.78 1000.43 1000.90 1001.89 1002.66 1002.73 1003.07 1003.58 1003.91
1008.23 1007.69 1006.07 1004.34 1002.33 999.62 997.55 997.12 996.69 996.26 995.33 995.15 994.30 994.05 993.61 993.16 992.80 992.31 992.58 992.42 992.14 991.72 991.54 991.77 991.93 992.16 992.42 992.87 993.15 994.17 995.03 995.84 996.79 997.29 997.83 998.28 998.90 999.84 1000.75 1001.21 1001.27 1001.83 1002.76 1003.04
1008.24 1008.20 1007.00 1004.72 1002.34 999.44 997.19 997.06 996.74 997.52 996.17 996.36 996.09 995.38 994.86 994.36 992.83 991.99 991.80 991.66 991.43 991.10 991.14 991.16 991.03 991.77 991.97 992.02 992.82 993.83 994.36 995.12 995.51 995.74 995.86 996.92 998.03 998.87 999.29 999.34 1000.14 1000.95 1001.46 1001.67
1008.11 1008.00 1006.64 1005.23 1002.84 999.81 998.47 998.02 998.15 997.56 996.69 996.61 996.56 996.25 995.98 995.52 994.16 992.70 992.15 991.73 991.49 990.98 990.53 990.68 990.91 991.11 991.40 991.91 992.46 993.10 993.63 993.87 993.36 994.56 995.67 996.42 997.16 997.77 998.71 999.89 1000.65 1001.19 1002.03 1002.80
1006.95 1006.80 1006.11 1005.50 1003.12 1000.93 999.42 998.57 998.29 997.53 997.05 996.92 996.71 996.57 996.35 996.06 994.95 994.05 992.43 991.96 991.58 991.05 990.92 990.56 990.70 990.93 991.45 991.85 992.11 992.46 992.69 992.46 993.81 994.37 995.12 995.94 996.68 997.53 998.10 998.68 999.46 1000.13 1000.76 1002.19
1006.71 1005.71 1004.97 1004.21 1002.06 1000.92 1000.02 999.64 998.90 998.88 998.16 997.53 997.19 996.76 996.37 995.56 994.51 993.60 992.60 992.01 991.52 991.13 990.92 990.57 990.80 991.28 991.61 991.66 991.77 991.93 992.27 992.91 993.37 994.01 994.65 995.42 996.10 996.70 997.51 998.17 998.81 999.66 1000.08 1001.16
1006.45 1005.77 1005.09 1004.13 1002.27 1001.49 1000.57 999.45 999.57 999.16 998.37 997.81 997.41 996.54 995.99 994.86 993.82 992.72 992.20 991.62 991.29 991.35 991.01 991.12 991.39 991.96 992.09 992.13 992.10 991.99 992.41 992.61 992.91 993.36 994.13 994.72 995.36 996.09 996.92 997.74 998.34 998.74 999.27 999.74
1006.64 1005.84 1004.84 1003.73 1002.99 1001.89 1000.86 1000.21 999.66 998.90 998.38 997.76 997.19 996.44 995.67 994.35 992.62 991.86 991.53 991.89 991.87 991.89 991.74 991.93 992.01 992.43 992.09 992.41 992.33 992.16 992.43 992.75 993.05 993.69 994.18 994.72 995.27 996.27 997.32 998.01 998.31 998.46 998.68 998.72
1005.86 1004.73 1004.13 1002.21 1002.02 1001.86 1000.79 1000.73 1000.49 999.69 998.65 997.96 997.10 996.04 995.50 993.87 992.83 992.36 992.40 992.44 992.34 992.53 992.35 992.71 992.62 992.82 992.83 992.75 992.67 992.88 992.92 992.93 993.31 993.99 994.64 995.54 996.26 997.07 997.86 998.38 999.38 999.86 999.60 998.96
Wind_Speed
15 13 22 23 17 12 8 7 13 9 6 6 13 16 13 19 21 21 22 22 22 24 21 20 20 19 18 17 17 18 17 16 12 11 11 10 10 8 8 7 9 7 8 9
9 25 19 14 16 19 17 16 17 8 6 5 7 11 10 18 24 24 24 24 24 20 21 21 21 21 21 20 20 18 18 16 15 11 10 8 9 9 8 8 8 7 8 8
24 6 20 17 15 19 23 24 17 8 4 5 8 12 7 13 15 18 21 21 17 23 24 22 22 23 22 21 21 19 19 17 16 14 9 8 6 6 7 8 8 8 9 8
21 19 23 22 23 21 23 19 20 17 9 10 5 13 8 13 18 21 21 22 24 23 22 21 22 23 24 22 20 18 18 17 16 16 13 14 12 12 11 10 10 9 10 10
17 24 21 25 28 20 16 14 17 19 14 12 14 10 14 8 15 22 23 25 25 26 25 25 26 25 24 22 20 18 18 17 16 16 15 13 14 11 9 9 10 10 9 11
18 7 23 17 20 22 11 10 8 3 9 17 21 14 15 12 19 18 22 24 24 25 25 25 25 23 21 20 20 19 18 18 17 17 19 17 17 14 11 11 10 10 10 10
20 13 15 17 17 19 20 18 8 11 13 13 13 14 18 9 17 19 21 25 26 27 25 24 24 23 21 22 22 20 20 20 19 19 19 20 19 16 15 13 11 10 9 9
19 18 20 19 20 13 28 23 9 16 16 13 7 17 13 17 19 17 19 21 22 22 23 25 24 22 22 23 23 22 21 21 21 21 21 19 19 13 13 14 12 11 11 10
19 19 13 21 18 20 19 27 21 12 1 6 13 14 11 11 17 21 19 18 19 23 25 27 27 24 23 21 23 24 22 22 21 22 19 18 17 17 15 16 13 12 11 10
5 7 13 26 17 22 14 19 11 14 15 16 7 10 15 18 20 19 20 20 20 21 22 25 24 24 23 22 22 22 23 23 23 22 19 17 19 19 17 14 15 15 13 13
3 6 4 16 23 22 12 20 13 12 12 10 9 11 7 16 19 22 23 22 22 21 22 22 21 22 23 21 20 23 23 23 21 21 20 20 19 19 17 16 16 15 15 14
4 4 11 12 12 20 24 19 25 13 12 15 8 7 2 11 10 15 18 18 18 18 19 18 21 20 20 22 21 23 23 22 23 21 20 21 19 18 19 19 19 17 17 15
6 3 11 10 10 9 24 22 23 21 14 19 13 6 9 9 8 11 12 12 12 11 13 16 15 17 19 21 22 22 22 25 23 20 21 20 20 20 21 20 19 18 17 17
5 1 9 13 6 5 5 13 23 24 18 16 22 16 9 11 9 13 14 14 10 10 12 12 14 17 17 18 19 20 22 22 21 21 21 21 21 22 21 20 19 19 19 18
6 2 5 6 8 8 10 13 11 18 24 24 19 24 18 15 13 13 10 8 11 11 12 13 15 15 15 17 18 19 19 18 20 20 21 23 21 21 20 20 20 19 19 18
7 2 3 10 10 12 14 15 15 17 18 19 22 25 8 14 19 17 17 17 14 14 14 13 14 14 15 18 18 18 19 20 20 21 23 21 19 20 21 20 20 19 20 19
5 3 4 7 8 14 17 21 20 17 15 16 22 16 15 19 13 18 18 16 16 14 13 10 12 14 15 18 18 19 20 17 19 20 20 19 19 20 20 19 19 21 21 18
6 5 3 5 3 12 5 6 8 15 18 21 22 18 16 19 19 18 18 19 17 15 16 14 13 13 16 17 19 17 17 18 18 18 18 17 18 19 17 18 20 20 19 21
19 9 4 6 12 17 21 8 1 3 12 9 17 19 20 21 21 18 17 17 18 18 15 13 13 15 11 14 16 15 16 18 18 19 19 20 19 19 19 21 22 19 17 18
14 14 8 5 10 14 1 9 6 4 14 5 5 6 7 11 16 12 14 19 20 20 16 14 15 11 11 13 14 15 17 17 19 20 22 19 18 18 21 22 19 16 17 18
6 8 16 14 11 8 9 3 5 9 0 6 5 8 10 9 11 15 15 12 14 16 16 14 12 11 10 5 11 15 15 19 22 15 14 16 17 17 14 12 11 12 12 10
6 8 7 12 11 21 11 8 9 5 5 9 10 9 12 15 19 22 24 17 14 13 13 10 9 8 4 6 11 13 16 15 9 10 13 13 13 12 12 14 12 13 12 8
8 11 5 10 7 12 15 15 16 11 13 12 14 13 14 16 22 21 19 16 12 8 5 4 7 6 3 3 8 11 9 9 10 11 11 12 12 13 12 13 13 12 12 13
6 8 8 10 11 18 24 21 18 13 17 18 16 17 14 18 21 22 17 12 8 5 7 9 11 10 9 6 4 6 9 10 10 11 13 12 12 12 13 10 11 12 13 14
10 8 8 13 20 23 22 21 18 16 16 18 15 13 18 20 19 17 11 10 8 8 9 10 12 10 12 9 9 7 6 7 6 6 6 8 7 8 5 3 2 9 8 10
13 19 13 11 11 9 17 16 20 21 18 14 13 12 17 7 5 7 9 8 9 9 11 11 12 12 11 11 12 10 8 8 9 9 7 7 8 7 6 6 7 14 5 14
Wind_Direction
193 197 210 213 211 226 220 238 240 236 238 223 224 245 215 194 201 195 189 192 198 202 197 202 205 205 206 205 202 202 200 201 197 201 204 210 217 219 230 235 240 232 225 216
176 223 209 206 206 217 225 234 243 257 261 279 251 258 225 196 207 198 194 193 202 198 196 200 203 205 205 205 207 203 202 197 199 202 203 206 208 220 224 224 233 230 226 209
201 184 203 197 199 207 219 223 219 234 338 239 256 253 206 212 212 206 210 207 207 199 198 200 201 204 207 207 205 206 202 197 197 201 198 202 209 220 215 225 230 224 227 222
221 210 192 204 216 205 222 218 238 244 258 250 232 266 209 207 205 208 208 207 207 206 203 203 204 208 207 209 205 206 206 201 198 192 196 201 208 212 218 218 222 225 223 224
200 200 196 211 209 203 227 205 220 239 246 263 233 251 247 206 212 216 211 212 210 208 202 203 205 205 209 208 207 203 200 205 201 195 203 202 215 217 221 222 220 223 221 225
206 207 193 206 208 200 187 172 191 207 242 238 238 234 246 206 216 216 216 220 214 212 209 209 210 209 207 206 206 205 200 203 201 200 201 204 211 215 216 220 222 227 226 219
201 189 201 191 184 199 196 180 183 216 217 238 218 228 240 232 217 217 209 216 215 210 210 211 210 208 205 203 202 198 197 201 199 201 204 208 212 212 213 214 221 222 220 215
200 208 194 188 202 185 201 199 207 215 233 242 191 237 235 221 234 230 233 223 219 213 210 213 211 207 207 204 200 198 197 203 200 201 206 208 210 211 216 215 220 218 220 216
204 221 191 178 194 183 193 212 216 259 146 261 221 247 263 238 224 216 220 224 216 211 211 213 213 210 206 203 202 200 198 200 199 203 204 207 208 211 211 215 210 216 220 220
186 218 200 193 189 200 186 177 183 214 231 238 214 248 235 197 212 211 215 212 220 218 214 217 215 212 211 205 203 200 200 198 199 199 203 205 206 208 212 208 210 212 213 217
335 236 126 171 204 188 179 188 206 202 223 229 247 244 206 218 212 212 215 212 214 216 218 215 214 212 211 210 202 201 198 199 198 200 201 206 206 205 207 207 211 211 207 207
31 284 221 202 187 215 204 195 197 206 184 226 265 252 265 229 221 229 225 222 228 226 224 222 219 212 208 208 204 201 200 199 200 200 199 203 207 206 205 209 208 204 208 205
352 222 199 225 211 197 218 215 206 218 234 215 211 206 252 252 262 231 238 238 232 222 222 226 223 212 206 204 202 201 200 205 200 196 198 200 204 203 208 209 209 206 206 207
317 326 265 226 239 20 230 220 211 213 222 223 225 236 227 268 250 259 261 263 249 233 219 219 219 214 207 204 201 201 203 202 202 199 199 201 203 205 208 208 207 207 204 204
5 305 326 307 299 292 269 262 244 236 234 231 238 237 231 246 280 277 276 268 277 235 214 211 218 212 202 201 200 201 203 199 198 198 202 208 203 204 207 208 207 208 206 207
356 283 305 300 293 284 275 255 251 244 243 256 260 261 262 239 238 252 272 286 280 275 249 220 221 217 204 201 200 199 201 199 192 196 205 205 204 203 206 205 206 207 209 207
310 293 248 257 305 309 269 243 241 243 243 240 242 251 254 248 239 247 247 249 250 244 245 240 217 213 206 203 196 201 200 190 195 199 206 203 203 207 207 204 203 208 208 207
248 221 232 269 266 241 281 321 293 247 246 240 246 244 247 250 245 232 239 251 258 260 259 246 235 226 218 217 207 202 190 192 195 203 204 204 203 208 204 205 210 210 206 207
219 223 227 231 226 283 288 252 213 314 262 298 267 246 238 243 257 247 239 248 249 257 260 251 256 244 228 212 208 194 188 189 193 201 205 204 200 201 199 206 210 209 207 209
205 229 245 195 240 234 322 249 266 179 264 103 336 293 278 306 249 258 234 232 239 243 249 249 245 235 236 217 199 188 191 189 201 204 207 201 201 203 204 210 210 208 211 214
163 209 222 230 249 259 272 317 136 218 345 324 300 300 296 269 265 295 306 295 260 250 237 238 243 234 229 213 186 196 193 200 210 205 204 202 203 205 209 213 216 217 223 237
202 190 201 226 243 239 271 275 231 356 317 315 313 306 285 280 279 273 279 283 287 290 263 228 226 235 259 195 185 201 201 208 192 194 197 198 194 201 200 201 199 200 185 184
237 223 236 222 216 267 296 289 303 318 296 306 301 301 289 283 276 274 269 273 262 257 236 175 157 135 79 167 195 196 193 169 161 173 187 190 191 194 202 199 196 195 188 205
268 261 239 267 254 263 273 291 305 290 300 301 296 294 289 279 274 269 257 233 193 165 125 134 126 123 106 95 132 168 164 163 163 169 180 181 184 186 195 200 203 201 203 202
258 286 266 270 277 277 274 268 296 293 289 284 286 297 298 277 267 239 198 165 138 127 118 125 119 116 101 98 90 91 146 163 162 166 162 169 181 166 131 77 249 212 202 218
238 240 230 251 249 289 281 298 319 297 286 287 294 313 294 275 216 164 140 119 114 107 106 109 103 98 93 88 81 71 83 118 125 120 119 123 126 119 116 104 67 30 41 131